FW9994 Weather Reports


time (UTC)temp
C
wind
direction
speed
KPH
gust
KPH
rain 1hr
cm
rain 24hr
cm
rain mn
cm
humidity
%
barometer
mb
20260506014530 9 0.0 0.0 0.00 0.03 0.00 86 1008.8
20260506014029 9 0.0 0.0 0.00 0.03 0.00 86 1008.8
20260506013530 9 0.0 0.0 0.00 0.03 0.00 86 1008.8
20260506013029 9 0.0 0.0 0.00 0.03 0.00 86 1008.9
20260506012530 9 0.0 0.0 0.00 0.03 0.00 86 1008.9
20260506012030 9 0.0 0.0 0.00 0.03 0.00 86 1008.9
20260506011007 9 0.0 0.0 0.00 0.03 0.00 85 1009.0
20260506010504 9 0.0 0.0 0.00 0.03 0.00 85 1009.0
20260506010003 9 0.0 0.0 0.00 0.03 0.00 85 1009.0
20260506005457 9 0.0 0.0 0.00 0.03 0.00 85 1009.0
20260506004953 10 0.0 0.0 0.00 0.03 0.00 85 1009.1
20260506004432 10 0.0 0.0 0.00 0.03 0.00 85 1009.2
20260506003931 10 0.0 0.0 0.00 0.03 0.00 85 1009.2
20260506003432 10 0.0 0.0 0.00 0.03 0.00 85 1009.1
20260506002931 10 0.0 0.0 0.00 0.03 0.00 85 1009.1
20260506002424 10 0.0 0.0 0.00 0.03 0.00 84 1009.3
20260506001925 10 0.0 0.0 0.00 0.03 0.00 84 1009.3
20260506001427 10 0.0 0.0 0.00 0.05 0.00 84 1009.3
20260506000916 10 0.0 0.0 0.00 0.05 0.00 84 1009.3
20260506000404 10 0.0 0.0 0.00 0.05 0.00 84 1009.3
20260505235903 10 0.0 0.0 0.00 0.05 0.00 84 1009.4
20260505235403 10 0.0 0.0 0.00 0.05 0.00 84 1009.4
20260505234832 10 0.0 0.0 0.00 0.05 0.00 84 1009.4
20260505234329 10 0.0 0.0 0.00 0.05 0.00 84 1009.5
20260505233328 10 0.0 0.0 0.00 0.08 0.00 83 1009.5
20260505232831 10 0.0 0.0 0.00 0.10 0.00 83 1009.6
20260505232329 10 0.0 0.0 0.00 0.13 0.00 83 1009.6
20260505231830 10 0.0 0.0 0.00 0.15 0.00 83 1009.6
20260505231328 10 0.0 0.0 0.00 0.20 0.00 83 1009.6
20260505230830 10 0.0 0.0 0.00 0.25 0.00 83 1009.7
20260505230328 10 0.0 0.0 0.00 0.33 0.00 84 1009.7
20260505225329 10 0.0 0.0 0.00 0.41 0.00 84 1009.8
20260505224829 10 0.0 0.0 0.00 0.43 0.00 83 1009.8
20260505223830 10 0.0 0.0 0.00 0.43 0.00 83 1009.9
20260505223330 10 0.0 0.0 0.00 0.46 0.00 83 1009.9
20260505222830 10 0.0 0.0 0.00 0.48 0.00 83 1010.0
20260505222306 10 0.0 0.0 0.00 0.51 0.00 83 1009.9
20260505221230 10 0.0 0.0 0.00 0.64 0.00 83 1010.0
20260505220729 10 0.0 0.0 0.00 0.66 0.00 83 1010.1
20260505220231 10 0.0 0.0 0.00 0.71 0.00 84 1010.1
20260505215728 10 0.0 0.0 0.00 0.74 0.71 84 1010.2
20260505215230 10 0.0 0.0 0.00 0.76 0.71 84 1010.2
20260505214232 10 0.0 0.0 0.00 0.79 0.71 84 1010.3
20260505213728 10 0.0 0.0 0.00 0.81 0.71 84 1010.3
20260505213230 10 0.0 0.0 0.00 0.81 0.71 84 1010.3
20260505212730 10 0.0 0.0 0.00 0.81 0.71 84 1010.4
20260505211729 10 0.0 0.0 0.00 0.81 0.71 84 1010.3
20260505211229 10 0.0 0.0 0.00 0.81 0.71 84 1010.4
20260505210725 10 0.0 0.0 0.00 0.81 0.71 84 1010.5
20260505210208 10 0.0 0.0 0.00 0.81 0.71 84 1010.4
20260505205704 10 0.0 0.0 0.00 0.81 0.71 84 1010.5
20260505205201 10 0.0 0.0 0.00 0.81 0.71 84 1010.5
20260505204134 10 0.0 0.0 0.00 0.81 0.71 84 1010.5
20260505203631 10 0.0 0.0 0.00 0.81 0.71 84 1010.5
20260505202629 10 0.0 0.0 0.00 0.81 0.71 84 1010.5
20260505202129 10 0.0 0.0 0.00 0.81 0.71 84 1010.6
20260505201630 11 0.0 0.0 0.00 0.81 0.71 84 1010.6
20260505201131 11 0.0 0.0 0.00 0.81 0.71 84 1010.5
20260505200630 11 0.0 0.0 0.00 0.81 0.71 84 1010.5
20260505200128 11 0.0 0.0 0.00 0.81 0.71 84 1010.5
20260505195623 11 0.0 0.0 0.00 0.81 0.71 84 1010.5
20260505195102 11 0.0 0.0 0.00 0.81 0.71 84 1010.5
20260505194602 11 0.0 0.0 0.00 0.81 0.71 84 1010.4
20260505194102 11 0.0 0.0 0.00 0.81 0.71 84 1010.3
20260505193601 11 0.0 0.0 0.00 0.81 0.71 84 1010.4
20260505193053 11 0.0 0.0 0.00 0.81 0.71 84 1010.3
20260505192545 11 0.0 0.0 0.00 0.81 0.71 84 1010.3
20260505192031 11 0.0 0.0 0.00 0.81 0.71 84 1010.3
20260505191529 11 0.0 0.0 0.00 0.81 0.71 83 1010.2
20260505191029 11 0.0 0.0 0.00 0.81 0.71 84 1010.2
20260505190503 11 0.0 0.0 0.00 0.81 0.71 83 1010.2
20260505185506 11 0.0 0.0 0.00 0.81 0.71 83 1010.2
20260505184500 11 0.0 0.0 0.00 0.81 0.71 83 1010.1
20260505183957 11 0.0 0.0 0.00 0.81 0.71 83 1010.0
20260505183442 11 0.0 0.0 0.00 0.81 0.71 83 1010.0
20260505182940 11 0.0 0.0 0.00 0.81 0.71 83 1009.9
20260505182434 11 0.0 0.0 0.00 0.81 0.71 83 1010.0
20260505181930 11 0.0 0.0 0.00 0.81 0.71 83 1009.9
20260505180930 11 0.0 0.0 0.00 0.81 0.71 82 1009.9
20260505180429 11 0.0 0.0 0.00 0.81 0.71 82 1009.9
20260505175429 11 0.0 0.0 0.00 0.81 0.71 83 1009.9
20260505174906 11 0.0 0.0 0.00 0.81 0.71 83 1009.9
20260505173343 11 0.0 0.0 0.00 0.81 0.71 82 1009.8
20260505172830 12 0.0 0.0 0.00 0.81 0.71 82 1009.9
20260505172333 12 0.0 0.0 0.00 0.81 0.71 82 1009.9
20260505171329 12 0.0 0.0 0.00 0.81 0.71 82 1010.0
20260505170830 12 0.0 0.0 0.00 0.81 0.71 82 1010.0
20260505170329 12 0.0 0.0 0.00 0.81 0.71 83 1010.0
20260505165834 12 0.0 0.0 0.00 0.81 0.71 83 1010.1
20260505165314 12 0.0 0.0 0.00 0.81 0.71 83 1010.1
20260505164809 12 0.0 0.0 0.00 0.81 0.71 83 1010.2
20260505163756 11 0.0 0.0 0.00 0.81 0.71 83 1010.3
20260505162243 11 0.0 0.0 0.00 0.81 0.71 84 1010.4
20260505161759 11 0.0 0.0 0.00 0.81 0.71 84 1010.3
20260505161244 11 0.0 0.0 0.00 0.81 0.71 83 1010.2
20260505160742 11 0.0 0.0 0.00 0.81 0.71 84 1010.4
20260505160238 11 0.0 0.0 0.00 0.81 0.71 84 1010.5
20260505153339 11 0.0 0.0 0.00 0.81 0.71 84 1010.7
20260505152832 11 0.0 0.0 0.00 0.81 0.71 84 1010.7
20260505152330 11 0.0 0.0 0.00 0.81 0.71 84 1010.6
20260505151828 11 0.0 0.0 0.00 0.81 0.71 85 1010.7
20260505151327 11 0.0 0.0 0.00 0.81 0.71 85 1010.8
20260505150831 11 0.0 0.0 0.00 0.81 0.71 85 1010.7
20260505150324 11 0.0 0.0 0.00 0.81 0.71 85 1010.7
20260505140229 11 0.0 0.0 0.00 0.81 0.71 85 1011.0
20260505130203 11 0.0 0.0 0.00 0.81 0.71 85 1011.4
20260505124628 11 0.0 0.0 0.00 0.81 0.71 86 1011.5
20260505124129 11 0.0 0.0 0.00 0.81 0.71 86 1011.5
20260505123629 11 0.0 0.0 0.00 0.81 0.71 87 1011.5
20260505123129 11 0.0 0.0 0.00 0.81 0.71 87 1011.5
20260505122629 11 0.0 0.0 0.00 0.81 0.71 88 1011.5
20260505122126 11 0.0 0.0 0.00 0.81 0.71 88 1011.6
20260505121626 11 0.0 0.0 0.00 0.81 0.71 88 1011.6
20260505121119 11 0.0 0.0 0.00 0.81 0.71 89 1011.7
20260505120602 11 0.0 0.0 0.00 0.81 0.71 89 1011.6
20260505115603 11 0.0 0.0 0.00 0.81 0.71 89 1011.8
20260505115101 11 0.0 0.0 0.00 0.81 0.71 90 1011.8
20260505114559 11 0.0 0.0 0.00 0.81 0.71 90 1011.9
20260505114054 11 0.0 0.0 0.00 0.81 0.71 90 1011.9
20260505113554 10 0.0 0.0 0.00 0.81 0.71 91 1011.8
20260505113050 10 0.0 0.0 0.00 0.81 0.71 91 1011.7
20260505112550 10 0.0 0.0 0.00 0.81 0.71 91 1011.8
20260505112055 10 0.0 0.0 0.00 0.81 0.71 91 1011.9
20260505111039 10 0.0 0.0 0.00 0.81 0.71 91 1011.8
20260505102001 10 0.0 0.0 0.00 0.81 0.71 92 1011.9
20260505101451 10 0.0 0.0 0.00 0.81 0.71 92 1011.9
20260505100940 10 0.0 0.0 0.00 0.81 0.71 92 1011.8
20260505100443 10 0.0 0.0 0.00 0.81 0.71 92 1012.0
20260505095939 9 0.0 0.0 0.00 0.81 0.71 92 1011.9
20260505095431 9 0.0 0.0 0.00 0.81 0.71 92 1011.9
20260505094930 9 0.0 0.0 0.00 0.81 0.71 93 1012.0
20260505094427 9 0.0 0.0 0.00 0.81 0.71 93 1012.0
20260505093925 9 0.0 0.0 0.00 0.81 0.71 92 1012.0
20260505093420 9 0.0 0.0 0.00 0.81 0.71 92 1012.0
20260505092902 9 0.0 0.0 0.00 0.81 0.71 93 1012.1
20260505091400 9 0.0 0.0 0.00 0.81 0.71 93 1012.2
20260505090334 9 0.0 0.0 0.00 0.81 0.71 93 1012.1
20260505085831 9 0.0 0.0 0.00 0.81 0.71 93 1012.2
20260505085331 9 0.0 0.0 0.00 0.81 0.71 93 1012.1
20260505084329 9 0.0 0.0 0.00 0.81 0.71 93 1012.1
20260505083805 9 0.0 0.0 0.00 0.81 0.71 93 1012.2
20260505082802 9 0.0 0.0 0.00 0.81 0.71 93 1012.2
20260505081241 9 0.0 0.0 0.00 0.81 0.71 93 1012.3
20260505080731 9 0.0 0.0 0.00 0.81 0.71 93 1012.3
20260505080228 9 0.0 0.0 0.00 0.81 0.71 93 1012.2
20260505075721 9 0.0 0.0 0.00 0.81 0.71 93 1012.2
20260505074715 9 0.0 0.0 0.00 0.81 0.71 93 1012.1
20260505073713 9 0.0 0.0 0.00 0.81 0.71 93 1012.2
20260505073153 9 0.0 0.0 0.00 0.81 0.71 93 1012.2
20260505072650 9 0.0 0.0 0.00 0.81 0.71 93 1012.1
20260505072130 9 0.0 0.0 0.00 0.81 0.71 93 1012.2
20260505071629 9 0.0 0.0 0.00 0.81 0.71 93 1012.1
20260505071129 8 0.0 0.0 0.00 0.81 0.71 93 1012.2
20260505070629 8 0.0 0.0 0.00 0.81 0.71 93 1012.3
20260505065623 8 0.0 0.0 0.00 0.81 0.71 93 1012.3
20260505065116 8 0.0 0.0 0.00 0.81 0.71 93 1012.4
20260505064609 8 0.0 0.0 0.00 0.81 0.71 93 1012.4
20260505064103 8 0.0 0.0 0.00 0.81 0.71 93 1012.4
20260505063546 8 0.0 0.0 0.00 0.81 0.71 93 1012.5
20260505063032 9 0.0 0.0 0.00 0.81 0.71 93 1012.5
20260505062532 9 0.0 0.0 0.00 0.81 0.71 93 1012.6
20260505061529 9 0.0 0.0 0.00 0.81 0.71 93 1012.5
20260505061027 9 0.0 0.0 0.00 0.81 0.71 93 1012.5
20260505060004 9 0.0 0.0 0.00 0.81 0.71 93 1012.6
20260505055504 9 0.0 0.0 0.00 0.81 0.71 93 1012.6
20260505054951 9 0.0 0.0 0.00 0.81 0.71 93 1012.5
20260505054445 9 0.0 0.0 0.00 0.81 0.71 93 1012.5
20260505053945 9 0.0 0.0 0.00 0.81 0.71 93 1012.5
20260505053437 9 0.0 0.0 0.00 0.81 0.71 93 1012.5
20260505052930 9 0.0 0.0 0.00 0.81 0.71 93 1012.4
20260505052429 9 0.0 0.0 0.00 0.81 0.71 93 1012.4
20260505051930 9 0.0 0.0 0.00 0.81 0.71 93 1012.4
20260505051429 9 0.0 0.0 0.00 0.81 0.71 93 1012.4
20260505050429 9 0.0 0.0 0.00 0.81 0.71 93 1012.2
20260505040831 10 0.0 0.0 0.00 0.81 0.71 93 1012.1
20260505040329 10 0.0 0.0 0.00 0.81 0.71 93 1012.2
20260505035315 10 0.0 0.0 0.00 0.81 0.71 93 1012.1
20260505034804 10 0.0 0.0 0.00 0.81 0.71 93 1012.1
20260505034302 10 0.0 0.0 0.00 0.81 0.71 93 1012.1
20260505033757 10 0.0 0.0 0.00 0.81 0.71 93 1012.1
20260505033254 10 0.0 0.0 0.00 0.81 0.71 93 1012.1
20260505032744 10 0.0 0.0 0.00 0.81 0.71 93 1012.0
20260505032236 10 0.0 0.0 0.00 0.81 0.71 93 1012.1
20260505031731 10 0.0 0.0 0.00 0.81 0.71 93 1012.1
20260505030730 10 0.0 0.0 0.00 0.81 0.71 93 1012.2
20260505030229 10 0.0 0.0 0.00 0.81 0.71 93 1012.2
20260505025729 10 0.0 0.0 0.03 0.79 0.71 93 1012.2
20260505024730 10 0.0 0.0 0.03 0.79 0.71 93 1012.2
20260505023720 10 0.0 0.0 0.03 0.79 0.71 93 1012.3
20260505023221 10 0.0 0.0 0.03 0.79 0.71 93 1012.2
20260505022720 10 0.0 0.0 0.03 0.79 0.71 93 1012.3
20260505022206 10 0.0 0.0 0.03 0.79 0.71 93 1012.3
20260505021702 10 0.0 0.0 0.03 0.79 0.71 93 1012.3
20260505021201 10 0.0 0.0 0.03 0.79 0.71 93 1012.3
20260505020644 11 0.0 0.0 0.03 0.79 0.71 92 1012.2
20260505020130 11 0.0 0.0 0.03 0.79 0.71 92 1012.3
20260505015619 11 0.0 0.0 0.00 0.79 0.71 92 1012.3
20260505015102 11 0.0 0.0 0.00 0.79 0.71 92 1012.3
20260505014556 11 0.0 0.0 0.00 0.79 0.71 93 1012.2